Datum;Boden20;Boden5;Luft20;Luft200;Luftmax;Luftmin;Relfeu;Regen;Strahlung;Wind;Windmax;Windrichtung;Sonnenscheindauer 
06.06.2020;15,6;13,8;7,1;7,1;8,1;6,2;93;0,0;0;1,7;4,6;---;--- 
05.06.2020;16,2;15,9;11,5;11,3;15,9;8,0;83;4,2;2780;2,7;12,7;---;9,1 
04.06.2020;17,5;17,6;13,5;13,4;17,5;10,5;94;12,1;1493;1,2;6,7;---;4,7 
03.06.2020;18,3;20,1;17,8;17,4;29,3;9,5;71;15,4;4898;1,1;12,5;---;10,8 
02.06.2020;17,9;20,8;19,3;18,4;28,7;6,3;59;0,0;7554;1,0;5,0;---;12,3 
01.06.2020;17,1;19,8;18,6;17,3;26,4;4,9;57;0,0;7919;1,6;7,4;---;12,9 
31.05.2020;17,0;19,0;15,9;14,5;21,0;6,1;58;0,0;6882;2,2;7,9;---;12,5 
30.05.2020;16,8;18,8;15,8;14,7;21,9;3,6;55;0,0;7621;2,7;12,0;---;12,7 
29.05.2020;16,7;18,9;15,7;14,3;22,1;3,3;56;0,0;7778;2,0;7,5;---;12,8 
28.05.2020;16,6;19,5;17,2;15,8;21,6;7,2;53;0,0;8171;1,7;9,4;---;12,9 
27.05.2020;15,5;18,1;16,2;15,0;24,3;3,8;66;0,0;7537;0,1;0,8;---;11,9 
26.05.2020;15,2;16,9;13,5;12,5;21,2;0,0;71;0,0;6064;0,5;4,0;---;11,8 
25.05.2020;14,9;16,6;15,4;15,1;21,0;8,2;70;0,0;5541;2,8;10,0;---;11,2 
24.05.2020;14,9;14,9;12,8;12,5;17,0;6,7;73;0,0;3977;2,6;9,2;---;8,1 
23.05.2020;16,2;16,7;13,4;13,5;16,8;8,8;81;2,8;2660;1,9;7,5;---;8,4 
22.05.2020;16,6;18,0;17,8;17,8;23,6;10,0;79;1,7;3088;1,4;10,2;---;10,7 
21.05.2020;16,4;18,8;17,6;17,1;26,7;6,6;69;0,0;7642;0,9;5,1;---;12,1 
20.05.2020;16,0;19,1;19,3;18,1;23,9;12,5;67;0,0;6516;1,7;6,2;---;11,6 
19.05.2020;14,8;17,3;17,1;16,7;25,2;5,4;62;0,0;7301;1,4;7,5;---;11,0 
18.05.2020;14,0;15,8;15,1;14,8;24,2;3,2;64;0,0;7428;1,4;9,0;---;12,0 
17.05.2020;13,5;15,1;12,8;12,3;20,0;4,0;62;0,0;7820;1,4;7,2;---;12,0 
16.05.2020;12,9;14,0;11,4;10,9;20,4;0,1;63;0,0;7664;0,9;4,4;---;12,1 
15.05.2020;12,5;13,5;10,5;9,6;18,2;-0,1;61;0,0;7780;1,8;7,4;---;11,2 
14.05.2020;12,3;13,1;9,6;8,8;14,9;3,4;69;0,0;6629;2,6;7,9;---;11,9 
13.05.2020;11,9;12,0;8,9;8,3;16,2;-0,6;68;0,0;5581;1,3;7,6;---;10,8 
12.05.2020;11,9;11,5;7,4;6,7;14,3;-1,8;70;0,0;6893;1,0;5,7;---;11,5 
11.05.2020;13,9;12,7;6,4;6,7;14,2;2,3;84;5,6;1193;4,0;11,3;---;3,6 
10.05.2020;14,2;16,1;14,9;14,5;23,9;8,6;88;4,1;4423;1,1;12,3;---;7,5 
09.05.2020;14,3;15,3;13,8;14,1;22,1;6,7;72;0,0;3316;0,8;3,3;---;10,2 
08.05.2020;13,7;15,9;15,5;15,6;24,4;6,7;59;0,0;6431;1,0;4,7;---;11,8 
07.05.2020;12,8;14,2;12,1;12,0;22,2;1,1;63;0,0;7528;0,9;4,6;---;11,8 
06.05.2020;12,4;13,3;10,0;9,5;18,2;-0,8;62;0,0;7685;1,2;9,3;---;11,8 
05.05.2020;12,1;12,7;9,1;8,3;15,5;0,8;66;0,0;7506;2,0;7,9;---;11,9 
04.05.2020;12,7;13,4;10,8;10,5;15,3;3,4;85;0,3;2604;1,5;7,2;---;8,7 
03.05.2020;12,0;13,2;11,6;11,3;17,7;4,3;75;0,5;5370;1,0;5,4;---;10,8 
02.05.2020;12,1;12,3;9,1;8,9;13,3;5,7;84;6,1;4897;2,8;15,6;---;9,5 
01.05.2020;12,4;12,8;10,0;9,9;14,6;6,5;84;6,7;4036;2,6;13,1;---;8,7 
30.04.2020;13,1;13,5;11,4;11,5;15,1;8,1;85;6,0;2263;2,9;12,1;---;6,6 
29.04.2020;13,1;14,0;12,8;13,1;19,0;7,9;73;0,0;4262;2,2;10,0;---;10,0 
28.04.2020;13,8;14,0;10,5;10,9;16,5;4,1;83;2,4;2196;1,5;10,6;---;7,6 
27.04.2020;13,8;15,3;12,6;12,5;23,6;1,1;60;0,0;6842;1,6;12,4;---;11,3 
26.04.2020;13,4;14,8;10,7;10,8;21,7;0,1;61;0,0;7180;1,0;4,8;---;11,6 
25.04.2020;13,4;14,7;9,7;9,7;17,0;2,7;63;0,0;7083;1,8;6,4;---;11,0 
24.04.2020;13,5;14,7;12,0;12,6;22,8;2,8;61;0,0;5620;1,6;9,9;---;10,8 
23.04.2020;13,2;15,0;12,6;13,0;23,6;1,0;53;0,0;7058;1,3;6,7;---;11,6 
22.04.2020;12,6;14,2;13,5;13,4;21,7;4,1;47;0,0;7128;3,3;10,2;---;11,6 
21.04.2020;12,1;13,2;12,4;12,3;20,1;4,9;46;0,0;7066;3,6;11,2;---;11,6 
20.04.2020;12,0;12,6;11,5;11,2;18,4;4,0;46;0,0;7077;3,9;11,8;---;11,6 
19.04.2020;12,9;13,6;11,8;11,9;15,7;7,3;75;0,1;2850;2,5;8,3;---;9,1 
18.04.2020;12,9;14,9;13,9;14,5;25,2;5,4;70;0,7;3889;1,2;8,1;---;8,9 
17.04.2020;11,9;14,4;14,1;15,1;25,1;4,8;57;0,0;6071;1,1;4,1;---;11,0 
16.04.2020;10,7;12,3;11,5;11,8;24,4;-0,7;60;0,0;6297;1,5;6,9;---;11,2 
15.04.2020;10,0;10,4;6,6;7,0;17,5;-2,2;62;0,0;5724;1,0;5,6;---;10,6 
14.04.2020;10,3;9,1;4,5;4,7;11,9;-2,6;57;0,0;5319;1,9;8,1;---;11,0 
13.04.2020;12,0;11,3;7,5;7,8;13,1;1,7;63;0,1;3961;3,2;10,2;---;10,8 
12.04.2020;12,3;13,8;12,1;13,0;24,5;3,5;57;0,0;5170;1,3;8,0;---;10,0 
11.04.2020;12,2;13,5;10,7;11,6;23,1;0,3;48;0,0;6417;1,1;3,8;---;11,2 
10.04.2020;12,0;14,0;13,0;13,6;22,8;3,7;58;0,0;6273;1,7;9,1;---;11,1 
09.04.2020;11,7;13,6;13,3;14,1;25,0;3,6;60;0,0;4782;1,3;5,8;---;8,8 
08.04.2020;11,1;13,3;12,8;14,0;24,3;4,0;61;0,0;5842;1,0;7,7;---;10,8 
07.04.2020;10,0;12,3;13,3;13,6;22,9;3,4;61;0,0;5815;1,7;5,9;---;11,0 
06.04.2020;9,0;10,4;10,8;11,3;22,7;-0,1;54;0,0;6042;2,1;8,6;---;10,9 
05.04.2020;8,3;9,3;8,6;9,1;19,2;-1,5;59;0,0;6131;1,9;9,2;---;10,9 
04.04.2020;7,6;8,3;5,8;6,5;15,1;-1,3;66;0,0;5686;1,1;4,4;---;10,1 
03.04.2020;7,5;7,5;6,4;6,8;12,4;-0,3;66;0,0;2579;2,0;9,1;---;7,9 
02.04.2020;7,1;7,3;4,6;5,0;13,7;-3,8;60;0,0;5830;1,6;8,6;---;10,6 
01.04.2020;6,7;6,4;2,1;2,6;12,1;-6,6;56;0,0;5969;0,9;4,5;---;10,7 
31.03.2020;7,0;7,0;3,8;3,6;8,5;-2,9;62;0,0;5405;2,3;8,3;---;10,6 
30.03.2020;6,5;5,7;3,0;2,7;9,1;-6,3;49;0,0;5640;2,0;7,8;---;10,5 
29.03.2020;7,6;6,6;3,7;3,9;8,1;-1,4;68;0,1;2377;4,0;11,6;---;7,1 
28.03.2020;7,6;8,9;9,6;10,0;17,1;1,3;55;0,0;5214;2,8;9,3;---;10,1 
27.03.2020;6,5;7,4;8,8;8,7;15,8;0,9;55;0,0;5124;3,0;8,7;---;10,0 
26.03.2020;5,7;5,4;4,5;4,6;11,7;-1,8;50;0,0;5352;2,7;9,7;---;9,7 
25.03.2020;5,6;4,6;3,1;3,3;10,4;-4,0;44;0,0;5631;3,0;9,3;---;10,3 
24.03.2020;5,8;4,7;2,1;2,5;9,7;-3,5;44;0,0;5725;2,3;8,2;---;10,3 
23.03.2020;6,3;4,9;2,1;2,4;8,3;-2,5;44;0,0;5673;2,4;9,2;---;10,2 
22.03.2020;7,1;5,6;3,0;3,1;9,1;-3,0;52;0,0;5611;2,9;9,5;---;10,2 
21.03.2020;9,0;8,0;4,8;5,0;8,0;0,7;71;2,0;2708;4,4;12,2;---;8,5 
20.03.2020;9,7;10,8;9,6;9,5;13,6;6,4;83;0,0;3083;2,8;9,6;---;7,7 
19.03.2020;9,2;10,9;9,4;10,1;19,3;3,2;78;0,0;3983;0,8;4,8;---;8,3 
18.03.2020;8,7;9,9;7,9;8,6;17,7;0,8;82;0,0;3621;0,9;6,0;---;8,2 
17.03.2020;8,6;10,6;9,6;10,1;17,5;4,4;80;0,0;3253;1,2;5,5;---;8,2 
16.03.2020;7,5;8,7;7,9;8,5;17,8;0,5;76;0,0;4263;1,1;5,1;---;9,4 
15.03.2020;7,2;8,2;8,0;8,1;14,8;3,6;67;0,0;4366;2,6;8,3;---;9,7 
14.03.2020;7,0;7,5;4,5;4,8;12,5;-0,7;83;0,1;3310;1,3;6,0;---;7,1 
13.03.2020;7,6;7,9;5,8;6,2;10,2;2,4;73;0,4;2932;4,0;13,6;---;7,6 
12.03.2020;8,5;10,7;10,1;10,6;13,0;5,8;72;1,2;2385;4,3;14,8;---;6,9 
11.03.2020;7,5;10,2;12,5;13,1;15,4;10,5;85;0,6;887;5,1;13,0;---;1,8 
10.03.2020;6,4;6,7;6,5;6,8;10,7;3,4;94;6,1;752;3,6;9,7;---;1,6 
09.03.2020;6,5;7,6;6,9;7,2;10,6;3,0;81;0,3;2614;2,4;12,0;---;7,3 
08.03.2020;5,8;6,3;6,8;6,9;10,5;2,4;76;0,0;2482;3,5;11,1;---;6,6 
07.03.2020;5,6;5,7;4,7;5,0;8,3;1,3;77;0,0;2424;3,2;9,5;---;6,9 
06.03.2020;5,8;5,7;5,1;5,5;7,5;4,2;91;2,0;538;3,9;10,9;---;0,8 
05.03.2020;5,7;5,3;4,4;4,6;6,5;1,9;91;8,8;858;2,1;7,7;---;2,2 
04.03.2020;5,7;5,1;3,7;3,8;10,2;-0,1;85;0,2;2602;1,9;9,0;---;6,2 
03.03.2020;6,3;6,1;4,4;4,7;8,2;0,7;81;2,3;2843;2,9;9,4;---;7,1 
02.03.2020;6,0;6,3;5,9;6,0;10,3;1,4;83;1,8;2688;2,8;16,1;---;6,9 
01.03.2020;5,7;5,9;7,0;7,4;11,1;4,4;75;1,4;2447;3,7;14,4;---;6,2 
29.02.2020;5,0;5,4;6,8;7,2;13,1;3,2;83;5,7;1802;3,7;12,6;---;5,7 
28.02.2020;4,2;3,4;3,0;3,3;5,8;1,0;82;4,9;2214;3,2;12,6;---;6,9 
27.02.2020;5,1;3,3;1,7;1,9;4,1;0,2;92;5,8;799;2,4;8,2;---;2,6 
26.02.2020;6,1;4,7;3,1;3,4;5,0;2,2;83;1,3;1186;4,6;11,7;---;4,8 
25.02.2020;6,5;7,2;8,0;8,3;10,8;4,4;81;3,3;2073;3,6;14,9;---;4,9 
24.02.2020;6,1;5,4;5,1;5,7;10,6;1,4;87;2,5;503;3,0;12,7;---;--- 
23.02.2020;6,0;7,2;9,4;10,0;12,9;7,2;84;4,2;621;6,8;21,1;---;1,1 
22.02.2020;5,1;4,4;5,9;6,4;10,1;1,7;75;0,0;1448;4,1;10,7;---;4,8 
21.02.2020;5,4;5,2;5,1;5,4;7,6;2,8;75;1,5;2201;4,6;14,0;---;5,6 
20.02.2020;5,1;4,6;5,4;5,7;8,1;2,9;85;2,0;910;3,5;10,9;---;2,7 
19.02.2020;5,5;4,6;4,3;4,9;7,5;1,1;78;1,7;1318;4,0;12,7;---;3,8 
18.02.2020;6,0;5,5;6,0;6,5;8,4;4,6;75;0,3;1717;4,4;14,6;---;4,9 
17.02.2020;6,4;6,7;7,1;7,7;14,9;4,7;83;3,4;619;3,7;16,6;---;1,1 
16.02.2020;5,4;6,4;11,0;11,8;15,9;7,8;64;0,2;1126;5,0;15,5;---;3,6 
15.02.2020;4,5;4,6;6,0;6,4;10,5;3,2;85;0,0;2212;2,7;10,2;---;7,0 
14.02.2020;4,0;3,9;4,7;5,3;6,5;3,1;89;0,4;676;2,3;9,9;---;1,7 
13.02.2020;3,8;2,2;2,1;2,6;4,7;0,5;93;3,4;394;3,1;13,3;---;--- 
12.02.2020;4,3;3,0;3,1;3,8;6,8;2,1;76;0,0;2498;5,7;16,6;---;6,5 
11.02.2020;5,1;3,9;3,4;4,2;7,3;0,8;76;7,5;2005;7,6;22,6;---;5,0 
10.02.2020;5,4;6,2;7,5;8,1;12,6;3,5;76;14,2;1947;8,9;25,6;---;5,0 
09.02.2020;3,7;4,0;7,1;7,7;12,5;3,2;75;0,1;1194;5,1;20,1;---;3,3 
08.02.2020;3,3;1,7;1,0;1,6;6,1;-2,7;86;0,0;1059;1,7;5,8;---;4,2 
07.02.2020;3,8;2,1;-0,1;0,5;6,4;-4,0;89;0,2;2536;1,1;5,9;---;7,5 
06.02.2020;4,5;2,5;-0,8;-0,3;3,4;-2,9;96;0,0;741;0,7;2,9;---;2,4 
05.02.2020;5,5;4,0;2,1;2,9;8,0;-1,7;81;0,0;2506;1,7;6,0;---;7,1 
04.02.2020;6,6;5,8;3,7;4,2;7,1;1,5;90;18,7;1338;4,1;12,4;---;4,6 
03.02.2020;6,9;7,4;9,0;9,6;11,5;6,8;80;5,8;755;4,0;13,3;---;2,4 
02.02.2020;6,6;6,9;8,2;8,9;13,5;5,7;82;4,3;425;4,3;14,4;---;--- 
01.02.2020;6,5;7,8;9,8;10,6;11,9;8,3;90;13,6;202;3,4;14,0;---;--- 
31.01.2020;5,2;7,1;10,8;11,4;14,2;7,1;85;0,1;1049;3,2;11,3;---;3,2 
30.01.2020;3,8;3,8;5,1;5,5;7,7;3,1;87;0,2;1146;3,4;9,1;---;4,4 
29.01.2020;3,8;3,0;2,9;3,5;6,4;1,0;82;0,5;918;3,6;14,4;---;2,9 
28.01.2020;4,1;4,1;4,0;4,6;6,3;1,5;87;10,4;945;4,7;14,4;---;2,9 
27.01.2020;3,3;3,5;3,9;4,1;6,4;2,0;99;11,0;259;3,4;10,5;---;--- 
26.01.2020;2,9;2,3;1,1;1,0;2,1;0,0;100;0,0;412;1,4;5,2;---;0,1 
25.01.2020;2,7;1,7;-0,2;-0,4;0,4;-1,4;99;0,0;312;1,0;3,2;---;--- 
24.01.2020;2,6;1,3;-0,2;-0,2;0,2;-0,9;93;0,0;316;1,5;5,6;---;--- 
23.01.2020;2,6;1,2;0,0;0,2;3,8;-2,3;95;0,0;911;0,6;3,5;---;3,0 
22.01.2020;2,9;0,7;-3,5;-3,2;-0,9;-6,3;99;0,0;450;0,6;3,0;---;0,1 
21.01.2020;3,8;1,5;-2,8;-1,6;6,4;-5,5;93;0,0;1928;0,6;2,3;---;6,7 
20.01.2020;4,5;3,7;1,7;2,2;6,1;-3,1;87;0,0;1360;1,2;4,5;---;3,4 
19.01.2020;4,4;3,1;1,7;2,3;5,3;-0,5;92;0,0;893;1,2;5,2;---;3,1 
18.01.2020;5,1;3,8;2,4;3,3;6,0;-0,4;88;0,0;576;1,9;8,7;---;0,7 
17.01.2020;5,7;4,6;3,8;4,9;7,5;1,0;91;0,0;781;2,1;8,6;---;2,6 
16.01.2020;6,1;6,6;7,3;8,2;12,1;4,2;88;1,3;1536;1,2;5,4;---;5,4 
15.01.2020;5,4;5,9;8,9;9,6;11,7;6,9;69;0,0;1537;4,0;10,7;---;5,6 
14.01.2020;4,8;4,8;6,4;7,0;9,1;4,5;79;0,0;547;4,0;11,4;---;1,8 
13.01.2020;4,4;4,0;4,3;4,7;5,7;3,3;95;0,0;415;2,2;6,8;---;--- 
12.01.2020;4,5;2,9;1,5;1,9;4,8;-1,1;94;0,0;510;3,0;10,5;---;0,7 
11.01.2020;5,6;4,5;2,4;3,1;6,2;-0,6;87;0,0;1026;1,4;6,5;---;3,9 
10.01.2020;6,1;6,8;6,9;7,6;10,5;3,9;90;1,8;593;3,3;9,7;---;1,5 
09.01.2020;5,1;6,3;8,1;8,4;10,0;6,3;99;14,8;179;3,6;8,9;---;--- 
08.01.2020;4,3;4,2;4,2;4,3;6,3;3,2;99;2,2;256;3,6;9,3;---;--- 
07.01.2020;4,1;3,5;2,5;2,7;6,2;-0,9;98;0,4;473;1,7;8,1;---;0,8 
06.01.2020;4,3;4,0;2,2;2,1;4,3;-1,0;99;0,0;520;1,5;7,8;---;1,1 
05.01.2020;4,0;4,1;4,0;4,3;5,9;3,1;99;3,1;248;0,7;6,7;---;--- 
04.01.2020;3,5;3,4;3,9;4,6;7,9;1,4;89;0,0;342;3,9;10,1;---;0,4 
03.01.2020;2,4;2,0;4,0;4,5;8,6;0,7;95;0,0;292;4,0;12,0;---;--- 
02.01.2020;2,3;0,6;-2,0;-1,8;0,9;-6,2;99;0,0;179;1,5;8,4;---;--- 
01.01.2020;2,6;0,8;-3,0;-2,3;3,9;-5,7;98;0,0;1351;0,5;2,4;---;5,5 
